Location: Oakhurst
(33.6448°N, 111.9543°W)
Time: 04:58:54
(UTC+00:00)

QB50P2 - Pass Details

Date: 02 August 2021
Orbit: 593 x 608 km, 97.9° (Epoch: 26 September)

Event Time Altitude Azimuth Distance (km) Brightness Sun altitude
Rises 08:57:13 0° 1° (N) 2,859 ? -35.0°
Reaches altitude 10° 08:59:32 10° 352° (N) 1,955 ? -34.8°
Enters shadow 09:00:17 15° 347° (NNW) 1,676 ? -34.7°
